Terminal Aerodrome Forecast
Issued by NWS

Home | Current Version | Previous Version | Text Only | Print | Product List | Glossary On
Versions: 1 2 3 4 5 6 7 8 9 10 11 12
483
FTUS42 TJSJ 040520
TAFIST
TAF
TIST 040520Z 0406/0506 07004KT P6SM SKC
     FM041300 13010KT P6SM SCT025
     FM042300 VRB06KT P6SM FEW025=

USA.gov is the U.S. government's official web portal to all federal, state and local government web resources and services.